This is the latest recevied weather packets stored in our database for station/object DM4RS-1. If no packets are shown the sender has not sent any weather packets the latest 10 day(s).
| Time | Temp. | Humidity | Pressure | Rain* | Wind** | Luminosity | Snow |
|---|---|---|---|---|---|---|---|
| 1777548385 | 18.89° C | 33% | 1031.8 hPa | - | - | - | - |
| 1777547785 | 18.33° C | 32% | 1032.2 hPa | - | - | - | - |
| 1777547184 | 18.33° C | 32% | 1032.4 hPa | - | - | - | - |
| 1777545384 | 17.22° C | 31% | 1032.7 hPa | - | - | - | - |
| 1777544784 | 17.78° C | 32% | 1033.6 hPa | - | - | - | - |
| 1777544184 | 17.22° C | 32% | 1033.2 hPa | - | - | - | - |
| 1777543584 | 17.22° C | 33% | 1033.5 hPa | - | - | - | - |
| 1777542984 | 16.67° C | 33% | 1034.1 hPa | - | - | - | - |
| 1777542383 | 16.67° C | 33% | 1034.2 hPa | - | - | - | - |
| 1777541783 | 16.67° C | 33% | 1034 hPa | - | - | - | - |
| 1777541183 | 16.11° C | 33% | 1034 hPa | - | - | - | - |
| 1777540583 | 16.11° C | 33% | 1035.7 hPa | - | - | - | - |
| 1777539383 | 15.56° C | 35% | 1033.5 hPa | - | - | - | - |
| 1777538783 | 15.56° C | 35% | 1033.7 hPa | - | - | - | - |
| 1777538182 | 15° C | 36% | 1033.6 hPa | - | - | - | - |
| 1777537582 | 14.44° C | 37% | 1033.8 hPa | - | - | - | - |
| 1777536982 | 13.89° C | 37% | 1033.7 hPa | - | - | - | - |
| 1777536382 | 13.89° C | 39% | 1033.2 hPa | - | - | - | - |
| 1777535782 | 13.33° C | 41% | 1034.7 hPa | - | - | - | - |
| 1777535181 | 12.78° C | 42% | 1034.5 hPa | - | - | - | - |
| 1777534581 | 12.22° C | 43% | 1035.8 hPa | - | - | - | - |
| 1777533981 | 11.67° C | 45% | 1035.3 hPa | - | - | - | - |
| 1777532781 | 10° C | 48% | 1034.7 hPa | - | - | - | - |
| 1777532181 | 9.44° C | 49% | 1034.9 hPa | - | - | - | - |
| 1777531580 | 8.33° C | 50% | 1034.9 hPa | - | - | - | - |
* Rain since midnight (hover to see other rain measurements)
** Current wind speed in m/s (hover to see current wind gust speed)